Le nostre stazioni meteo in Italia

Pubblicità
Il mio iltempo24.it
Bolzano, Italia (16020): Temperatura & dewpoint: 15.06.2019 00:00:00 - 21.06.2019 00:00:00 (CEST)Bolzano, Italia (16020): velocità del vento: 15.06.2019 00:00:00 - 21.06.2019 00:00:00 (CEST)Bolzano, Italia (16020): direzione del vento: 15.06.2019 00:00:00 - 21.06.2019 00:00:00 (CEST)Bolzano, Italia (16020): visibility: 15.06.2019 00:00:00 - 21.06.2019 00:00:00 (CEST)
Data & Tempo tt [°C] td [°C] ff [km/h] ff [kn] dd vv [km]
21.06.2019 00:00:00 - - - - - -
20.06.2019 23:00:00 24,0 13,0 9 5 NO 10
20.06.2019 22:00:00 26,0 12,0 16 9 N 10
20.06.2019 21:00:00 26,0 15,0 5 3 NO 10
20.06.2019 20:00:00 27,0 14,0 8 4 ESE 10
20.06.2019 19:00:00 28,0 15,0 15 8 S 10
20.06.2019 18:00:00 29,0 16,0 15 8 S 10
20.06.2019 17:00:00 31,0 12,0 16 9 S 10
20.06.2019 16:00:00 30,0 13,0 15 8 S 10
20.06.2019 15:00:00 32,0 15,0 13 7 S 10
20.06.2019 14:00:00 29,0 14,0 8 4 SSE 10
20.06.2019 13:00:00 28,0 12,0 4 2 - 10
20.06.2019 12:00:00 27,0 12,0 4 2 - 10
20.06.2019 11:00:00 24,0 13,0 5 3 - 10
20.06.2019 10:00:00 23,0 14,0 4 2 - 10
20.06.2019 09:00:00 21,0 14,0 4 2 - 10
20.06.2019 08:00:00 19,0 14,0 4 2 - 10
20.06.2019 07:00:00 17,0 13,0 4 2 - 10
20.06.2019 06:00:00 - - - - - -
20.06.2019 05:00:00 - - - - - -
20.06.2019 04:00:00 - - - - - -
20.06.2019 03:00:00 - - - - - -
20.06.2019 02:00:00 - - - - - -
20.06.2019 01:00:00 - - - - - -
20.06.2019 00:00:00 - - - - - -
19.06.2019 23:00:00 25,0 15,0 5 3 - 10
19.06.2019 22:00:00 24,0 16,0 5 3 - 10
19.06.2019 21:00:00 28,0 15,0 9 5 SSE 10
19.06.2019 20:00:00 28,0 14,0 15 8 SSE 10
19.06.2019 19:00:00 29,0 16,0 15 8 SSE 10
19.06.2019 18:00:00 30,0 16,0 16 9 S 10
19.06.2019 17:00:00 30,0 15,0 15 8 S 10
19.06.2019 16:00:00 32,0 14,0 9 5 S 10
19.06.2019 15:00:00 32,0 15,0 8 4 S 10
19.06.2019 14:00:00 32,0 15,0 8 4 S 10
19.06.2019 13:00:00 30,0 12,0 5 3 - 10
19.06.2019 12:00:00 27,0 13,0 5 3 OSO 10
19.06.2019 11:00:00 27,0 13,0 0 0 N 10
19.06.2019 10:00:00 25,0 15,0 0 0 N 10
19.06.2019 09:00:00 24,0 15,0 0 0 N 10
19.06.2019 08:00:00 20,0 16,0 5 3 S 10
19.06.2019 07:00:00 21,0 14,0 8 4 SSE 10
19.06.2019 06:00:00 - - - - - -
19.06.2019 05:00:00 - - - - - -
19.06.2019 04:00:00 - - - - - -
19.06.2019 03:00:00 - - - - - -
19.06.2019 02:00:00 - - - - - -
19.06.2019 01:00:00 - - - - - -
19.06.2019 00:00:00 - - - - - -
18.06.2019 23:00:00 22,0 16,0 4 2 - 10
18.06.2019 22:00:00 23,0 16,0 4 2 - 10
18.06.2019 21:00:00 - - - - - -
18.06.2019 20:00:00 27,0 14,0 9 5 S 10
18.06.2019 19:00:00 29,0 15,0 18 10 S 10
18.06.2019 18:00:00 31,0 14,0 18 10 SSE 10
18.06.2019 17:00:00 32,0 14,0 18 10 S 10
18.06.2019 16:00:00 33,0 14,0 21 11 S 10
18.06.2019 15:00:00 32,0 14,0 13 7 S 10
18.06.2019 14:00:00 31,0 15,0 11 6 SSE 10
18.06.2019 13:00:00 29,0 16,0 9 5 S 10
18.06.2019 12:00:00 28,0 14,0 4 2 - 10
18.06.2019 11:00:00 26,0 15,0 2 1 - 10
18.06.2019 10:00:00 24,0 15,0 4 2 - 10
18.06.2019 09:00:00 23,0 15,0 5 3 - 10
18.06.2019 08:00:00 19,0 16,0 2 1 - 10
18.06.2019 07:00:00 19,0 15,0 4 2 - 10
18.06.2019 06:00:00 - - - - - -
18.06.2019 05:00:00 - - - - - -
18.06.2019 04:00:00 - - - - - -
18.06.2019 03:00:00 - - - - - -
18.06.2019 02:00:00 - - - - - -
18.06.2019 01:00:00 - - - - - -
18.06.2019 00:00:00 - - - - - -
17.06.2019 23:00:00 22,0 15,0 0 0 N 10
17.06.2019 22:00:00 25,0 13,0 5 3 - 10
17.06.2019 21:00:00 26,0 13,0 9 5 S 10
17.06.2019 20:00:00 28,0 13,0 9 5 S 10
17.06.2019 19:00:00 29,0 12,0 11 6 S 10
17.06.2019 18:00:00 29,0 12,0 11 6 S 10
17.06.2019 17:00:00 32,0 12,0 16 9 S 10
17.06.2019 16:00:00 32,0 12,0 18 10 SSO 10
17.06.2019 15:00:00 32,0 12,0 15 8 SSO 10
17.06.2019 14:00:00 30,0 11,0 9 5 - 10
17.06.2019 13:00:00 28,0 12,0 8 4 S 10
17.06.2019 12:00:00 28,0 11,0 4 2 - 10
17.06.2019 11:00:00 26,0 12,0 4 2 - 10
17.06.2019 10:00:00 23,0 11,0 8 4 SE 10
17.06.2019 09:00:00 22,0 12,0 8 4 SSE 10
17.06.2019 08:00:00 20,0 12,0 4 2 S 10
17.06.2019 07:00:00 19,0 11,0 5 3 - 10
17.06.2019 06:00:00 - - - - - -
17.06.2019 05:00:00 - - - - - -
17.06.2019 04:00:00 - - - - - -
17.06.2019 03:00:00 - - - - - -
17.06.2019 02:00:00 - - - - - -
17.06.2019 01:00:00 - - - - - -
17.06.2019 00:00:00 - - - - - -
16.06.2019 23:00:00 25,0 9,0 16 9 N 10
16.06.2019 22:00:00 26,0 8,0 15 8 NNE 10
16.06.2019 21:00:00 27,0 9,0 11 6 N 10
16.06.2019 20:00:00 - - - - - -
16.06.2019 19:00:00 28,0 12,0 16 9 N 10
16.06.2019 18:00:00 28,0 10,0 18 10 NNE 10
16.06.2019 17:00:00 30,0 13,0 5 3 - 10
16.06.2019 16:00:00 32,0 12,0 5 3 - 10
16.06.2019 15:00:00 33,0 11,0 5 3 - 10
16.06.2019 14:00:00 31,0 9,0 13 7 NO 10
16.06.2019 13:00:00 30,0 11,0 8 4 - 10
16.06.2019 12:00:00 29,0 13,0 2 1 - 10
16.06.2019 11:00:00 26,0 15,0 5 3 - 10
16.06.2019 10:00:00 25,0 16,0 4 2 - 10
16.06.2019 09:00:00 24,0 15,0 0 0 N 10
16.06.2019 08:00:00 19,0 16,0 2 1 - 10
16.06.2019 07:00:00 18,0 15,0 4 2 - 10
16.06.2019 06:00:00 - - - - - -
16.06.2019 05:00:00 - - - - - -
16.06.2019 04:00:00 - - - - - -
16.06.2019 03:00:00 - - - - - -
16.06.2019 02:00:00 - - - - - -
16.06.2019 01:00:00 - - - - - -
16.06.2019 00:00:00 - - - - - -
15.06.2019 23:00:00 23,0 16,0 5 3 O 10
15.06.2019 22:00:00 - - - - - -
15.06.2019 21:00:00 28,0 15,0 15 8 S 10
15.06.2019 20:00:00 30,0 15,0 9 5 S 10
15.06.2019 19:00:00 31,0 13,0 11 6 S 10
15.06.2019 18:00:00 31,0 16,0 5 3 - 10
15.06.2019 17:00:00 31,0 14,0 8 4 NNO 10
15.06.2019 16:00:00 32,0 14,0 5 3 - 10
15.06.2019 15:00:00 32,0 12,0 5 3 - 10
15.06.2019 14:00:00 31,0 14,0 8 4 OSO 10
15.06.2019 13:00:00 30,0 13,0 4 2 - 10
15.06.2019 12:00:00 28,0 14,0 4 2 - 10
15.06.2019 11:00:00 26,0 14,0 4 2 - 10
15.06.2019 10:00:00 23,0 15,0 4 2 - 10
15.06.2019 09:00:00 22,0 15,0 4 2 - 10
15.06.2019 08:00:00 22,0 15,0 2 1 S 10
15.06.2019 07:00:00 21,0 15,0 9 5 O 10
15.06.2019 06:00:00 - - - - - -
15.06.2019 05:00:00 - - - - - -
15.06.2019 04:00:00 - - - - - -
15.06.2019 03:00:00 - - - - - -
15.06.2019 02:00:00 - - - - - -
15.06.2019 01:00:00 - - - - - -
15.06.2019 00:00:00 - - - - - -

tt = Temperatura
td = dewpoint
ff = velocità del vento
dd = direzione del vento
vv = visibility

Stazioni seguenti

WeatherPro
AMSI
MeteoEarth